TOM76LK BIAR-EGCC

Flight info

Callsign TOM76LK
Flight time N/A
Altitude 35000
Route JARRI1D JARRI DCT MATIK/N0455F350 DCT BESGA DCT ELBUS UL612 LAKEY
Aircraft B738/M-SDE2E3FGHIRWXY/LB1

Departure

Time 2026-04-21 01:07
Airport Akureyri International Airport (BIAR)

Arrival

Time N/A
Airport Manchester Airport (EGCC)
Time Latitude Longitude Altitude Speed Heading
2026-04-21 01:02 65.65414 -18.07484 135 ft 0 kts
2026-04-21 01:05 65.65415 -18.07480 135 ft 1 kts 26°
2026-04-21 01:06 65.65437 -18.07445 137 ft 6 kts 50°
2026-04-21 01:06 65.65454 -18.07345 136 ft 7 kts 61°
2026-04-21 01:06 65.65477 -18.07241 135 ft 8 kts 61°
2026-04-21 01:06 65.65524 -18.07182 16 ft 9 kts
2026-04-21 01:07 65.65529 -18.07182 16 ft 0 kts
2026-04-21 01:07 65.65741 -18.07216 18 ft 79 kts 355°
2026-04-21 01:07 65.66613 -18.07393 57 ft 165 kts 355°
2026-04-21 01:07 65.67876 -18.07517 869 ft 186 kts 359°
2026-04-21 01:08 65.69293 -18.07526 1597 ft 222 kts 360°
2026-04-21 01:08 65.70908 -18.07546 2597 ft 236 kts 359°
2026-04-21 01:08 65.72428 -18.07492 4276 ft 209 kts
2026-04-21 01:08 65.73709 -18.05905 5366 ft 222 kts 44°
2026-04-21 01:09 65.74507 -18.02233 5319 ft 279 kts 79°
2026-04-21 01:09 65.74297 -17.97191 5282 ft 324 kts 112°
2026-04-21 01:09 65.73219 -17.92353 5469 ft 317 kts 126°
2026-04-21 01:09 65.71902 -17.88356 5594 ft 289 kts 133°
2026-04-21 01:10 65.70599 -17.84922 5656 ft 265 kts 135°
2026-04-21 01:10 65.69359 -17.81766 5646 ft 253 kts 135°
2026-04-21 01:10 65.68151 -17.78697 5751 ft 246 kts 135°
2026-04-21 01:10 65.66972 -17.75692 6198 ft 259 kts 135°
2026-04-21 01:11 65.65687 -17.72404 6606 ft 276 kts 134°
2026-04-21 01:11 65.64353 -17.68970 7081 ft 281 kts 134°
2026-04-21 01:11 65.63006 -17.65483 7441 ft 283 kts 134°
2026-04-21 01:11 65.61670 -17.62014 7866 ft 282 kts 134°
2026-04-21 01:12 65.60336 -17.58547 8280 ft 282 kts 134°
2026-04-21 01:12 65.58992 -17.55052 8712 ft 287 kts 134°
2026-04-21 01:12 65.57617 -17.51478 9165 ft 292 kts 134°
2026-04-21 01:12 65.56233 -17.47882 9593 ft 292 kts 133°
2026-04-21 01:13 65.54845 -17.44279 10043 ft 293 kts 133°
2026-04-21 01:13 65.53458 -17.40679 10486 ft 293 kts 133°
2026-04-21 01:13 65.52089 -17.37132 10898 ft 294 kts 133°
2026-04-21 01:13 65.50692 -17.33519 11321 ft 295 kts 133°
2026-04-21 01:14 65.49283 -17.29885 11745 ft 297 kts 133°
2026-04-21 01:14 65.47869 -17.26241 12169 ft 300 kts 133°
2026-04-21 01:14 65.46558 -17.22299 12481 ft 304 kts 117°
2026-04-21 01:14 65.46047 -17.17446 12224 ft 303 kts 86°
2026-04-21 01:15 65.46646 -17.12724 11937 ft 295 kts 54°
2026-04-21 01:15 65.48103 -17.09423 11665 ft 288 kts 30°
2026-04-21 01:15 65.49879 -17.07476 11370 ft 284 kts 12°
2026-04-21 01:15 65.51826 -17.07120 11071 ft 280 kts 351°
2026-04-21 01:16 65.53654 -17.08539 10785 ft 277 kts 330°
2026-04-21 01:16 65.55139 -17.11429 10472 ft 274 kts 309°
2026-04-21 01:16 65.56265 -17.15132 10146 ft 274 kts 305°
2026-04-21 01:16 65.57354 -17.18892 9808 ft 274 kts 304°
2026-04-21 01:17 65.58445 -17.22675 9467 ft 274 kts 304°
2026-04-21 01:17 65.59534 -17.26450 9135 ft 274 kts 304°
2026-04-21 01:17 65.60626 -17.30232 8799 ft 274 kts 304°
2026-04-21 01:17 65.61694 -17.33930 8468 ft 269 kts 304°
2026-04-21 01:18 65.62741 -17.37555 8181 ft 256 kts 304°
2026-04-21 01:18 65.63736 -17.40998 7839 ft 246 kts 304°
2026-04-21 01:18 65.64706 -17.44360 7511 ft 239 kts 304°
2026-04-21 01:18 65.65632 -17.47657 7304 ft 237 kts 299°
2026-04-21 01:19 65.66375 -17.51263 7121 ft 242 kts 294°
2026-04-21 01:19 65.67067 -17.55014 6901 ft 244 kts 293°
2026-04-21 01:19 65.67757 -17.58756 6662 ft 242 kts 293°
2026-04-21 01:19 65.68447 -17.62462 6443 ft 241 kts 293°
2026-04-21 01:20 65.69130 -17.66102 6227 ft 240 kts 294°
2026-04-21 01:20 65.69822 -17.69766 6010 ft 239 kts 294°
2026-04-21 01:20 65.70518 -17.73432 5785 ft 239 kts 294°
2026-04-21 01:20 65.71216 -17.77107 5542 ft 239 kts 294°
2026-04-21 01:21 65.71910 -17.80760 5243 ft 240 kts 294°
2026-04-21 01:21 65.72610 -17.84445 4870 ft 241 kts 294°
2026-04-21 01:21 65.73308 -17.88122 4555 ft 238 kts 294°
2026-04-21 01:21 65.74002 -17.91766 4223 ft 236 kts 294°
2026-04-21 01:22 65.74687 -17.95376 3876 ft 234 kts 293°
2026-04-21 01:22 65.75365 -17.98958 3543 ft 232 kts 293°
2026-04-21 01:22 65.76031 -18.02484 3201 ft 225 kts 293°
2026-04-21 01:22 65.76655 -18.05884 2950 ft 211 kts 288°
2026-04-21 01:23 65.76704 -18.09154 2894 ft 185 kts 244°
2026-04-21 01:23 65.75773 -18.11089 2920 ft 185 kts 193°
2026-04-21 01:23 65.74479 -18.10690 2377 ft 205 kts 159°
2026-04-21 01:23 65.73158 -18.09216 1766 ft 206 kts 160°
2026-04-21 01:24 65.71873 -18.08401 1508 ft 182 kts 169°
2026-04-21 01:24 65.70687 -18.08086 1239 ft 164 kts 174°
2026-04-21 01:24 65.69559 -18.07964 804 ft 162 kts 175°
2026-04-21 01:24 65.68473 -18.07779 498 ft 150 kts 178°
2026-04-21 01:25 65.67483 -18.07555 295 ft 134 kts 175°
2026-04-21 01:25 65.66885 -18.07443 92 ft 127 kts 177°
2026-04-21 01:25 65.65927 -18.07258 16 ft 53 kts 174°
2026-04-21 01:25 65.65665 -18.07199 19 ft 19 kts 175°
2026-04-21 01:26 65.65583 -18.07181 17 ft 12 kts 175°
2026-04-21 01:26 65.65503 -18.07170 16 ft 11 kts 191°
2026-04-21 01:26 65.65459 -18.07365 17 ft 6 kts 246°
2026-04-21 01:26 65.65454 -18.07439 16 ft 4 kts 269°
2026-04-21 01:27 65.65460 -18.07506 17 ft 4 kts 321°
2026-04-21 01:27 65.65471 -18.07506 16 ft 0 kts 18°
2026-04-21 01:27 65.65477 -18.07499 18 ft 0 kts 26°